Coordenadas geográficas y zona horaria actual de 9040 ciudades de Burkina Faso.
Para reducir el número de resultados, selecciona región o usa el buscador:
Se muestran 8101 a 8150 de un total de 9040 ciudades:
| Ciudad | Latitud | Longitud | Zona horaria | Región |
|---|---|---|---|---|
| Torodo | 12°12′00″N | 00°29′00″W | UT+00:00:00 | Burkina Faso (general) |
| Torohiri | 10°09′00″N | 03°33′00″W | UT+00:00:00 | Burkina Faso (general) |
| Torokoro | 10°02′00″N | 04°24′00″W | UT+00:00:00 | Burkina Faso (general) |
| Torokoto | 13°20′47″N | 03°48′04″W | UT+00:00:00 | Boucle du Mouhoun |
| Torosso | 11°08′50″N | 04°34′39″W | UT+00:00:00 | Hauts-Bassins |
| Toroue | 13°46′05″N | 02°22′19″W | UT+00:00:00 | Norte |
| Torouodo | 12°34′00″N | 00°13′00″W | UT+00:00:00 | Burkina Faso (general) |
| Tosogo | 13°01′36″N | 00°08′15″W | UT+00:00:00 | Este |
| Toson | 12°54′00″N | 02°56′00″W | UT+00:00:00 | Burkina Faso (general) |
| Totenga | 13°05′50″N | 01°40′01″W | UT+00:00:00 | Centro-Norte |
| Totenga | 12°23′33″N | 01°25′45″W | UT+00:00:00 | Centro |
| Toton | 12°02′00″N | 03°27′00″W | UT+00:00:00 | Burkina Faso (general) |
| Tou | 13°55′25″N | 02°46′08″W | UT+00:00:00 | Norte |
| Touabre | 13°13′13″N | 00°14′27″W | UT+00:00:00 | Este |
| Touaeguen | 13°05′13″N | 00°54′15″W | UT+00:00:00 | Centro-Norte |
| Touaga | 12°10′12″N | 01°47′50″E | UT+00:00:00 | Este |
| Touba | 13°06′45″N | 04°19′16″W | UT+00:00:00 | Boucle du Mouhoun |
| Touba | 13°18′57″N | 02°34′42″W | UT+00:00:00 | Norte |
| Toubani | 12°57′00″N | 03°16′00″W | UT+00:00:00 | Burkina Faso (general) |
| Toubiango | 13°03′57″N | 02°25′44″W | UT+00:00:00 | Norte |
| Toubouandi | 12°19′40″N | 01°34′58″E | UT+00:00:00 | Este |
| Toubouandi | 12°16′28″N | 01°54′27″E | UT+00:00:00 | Este |
| Touboulondo | 13°15′44″N | 01°34′05″W | UT+00:00:00 | Centro-Norte |
| Toubouri | 12°25′20″N | 01°38′28″E | UT+00:00:00 | Este |
| Toudou | 11°52′00″N | 01°19′00″W | UT+00:00:00 | Centro-Sur |
| Touebaka | 12°03′00″N | 02°08′00″W | UT+00:00:00 | Burkina Faso (general) |
| Touekoundi | 13°29′09″N | 01°05′47″W | UT+00:00:00 | Centro-Norte |
| Toueyoko | 11°46′00″N | 01°00′00″W | UT+00:00:00 | Burkina Faso (general) |
| Tougan | 13°04′00″N | 03°04′00″W | UT+00:00:00 | Boucle du Mouhoun |
| Tougatenga | 12°34′00″N | 00°51′00″W | UT+00:00:00 | Burkina Faso (general) |
| Tougdou | 13°27′43″N | 00°03′08″W | UT+00:00:00 | Este |
| Tougiri | 12°04′00″N | 02°00′00″W | UT+00:00:00 | Burkina Faso (general) |
| Tougo | 13°27′16″N | 01°47′51″W | UT+00:00:00 | Centro-Norte |
| Tougo | 13°12′05″N | 02°07′13″W | UT+00:00:00 | Norte |
| Tougomene | 13°33′03″N | 02°42′47″W | UT+00:00:00 | Norte |
| Tougou | 13°40′49″N | 02°15′03″W | UT+00:00:00 | Norte |
| Tougou | 12°34′00″N | 02°27′00″W | UT+00:00:00 | Burkina Faso (general) |
| Tougou | 13°33′33″N | 02°27′17″W | UT+00:00:00 | Norte |
| Tougoudougou | 12°34′00″N | 00°11′00″W | UT+00:00:00 | Burkina Faso (general) |
| Tougoulema | 11°59′00″N | 01°35′00″W | UT+00:00:00 | Burkina Faso (general) |
| Tougouri | 13°07′38″N | 01°12′45″W | UT+00:00:00 | Centro-Norte |
| Tougouri | 13°18′59″N | 00°31′21″W | UT+00:00:00 | Centro-Norte |
| Tougourousambo | 12°02′00″N | 00°29′00″E | UT+00:00:00 | Burkina Faso (general) |
| Tougouya | 13°18′51″N | 02°10′51″W | UT+00:00:00 | Norte |
| Tougouya | 13°27′18″N | 02°03′54″W | UT+00:00:00 | Norte |
| Tougue | 13°31′14″N | 02°40′38″W | UT+00:00:00 | Norte |
| Tougui | 12°49′00″N | 00°30′00″W | UT+00:00:00 | Burkina Faso (general) |
| Tougui | 12°46′00″N | 00°31′00″W | UT+00:00:00 | Burkina Faso (general) |
| Touhaho | 11°40′00″N | 03°31′00″W | UT+00:00:00 | Burkina Faso (general) |
| Touhousma | 12°55′00″N | 01°25′00″W | UT+00:00:00 | Burkina Faso (general) |